This demonstration page uses our WeatherBlox Daily Observations layout. Learn more.

Left ArrowRight Arrow

39.08367, -84.50855

Hourly Observations for December 25, 2016

Temp ( °F °C ) Dew Point ( °F °C ) Humidity (%) Winds ( mph kmh ) Pressure ( in mb ) Visibility ( mi km ) Precip ( " mm )
12:53 am 00:53 Cloudy 41 5 38 3.3 89 89 ENE 5 7 30.37 1028 8 13 0.00 0.00
1:08 am 01:08 Cloudy 39 4 37 3 93 93 ENE 8 13 30.36 1028 8 13 0.00 0.00
1:53 am 01:53 Cloudy with Mist and Fog 40 4.4 38 3.3 93 93 NE 6 9 30.36 1028 5 8 0.00 0.00
2:10 am 02:10 Cloudy with Mist and Fog 39 4 37 3 93 93 NE 6 9 30.36 1028 5 8 0.00 0.00
2:44 am 02:44 Cloudy with Mist and Fog 39 4 37 3 93 93 NE 7 11 30.36 1028 6 10 0.00 0.00
2:53 am 02:53 Cloudy with Mist and Fog 39 3.9 38 3.3 96 96 NE 6 9 30.37 1028 5 8 0.00 0.00
3:25 am 03:25 Cloudy with Mist and Fog 40 4.4 38 3.3 93 93 NNE 8 13 30.36 1028 5 8 0.00 0.00
3:53 am 03:53 Cloudy with Mist and Fog 39 3.9 38 3.3 96 96 ENE 6 9 30.37 1029 5 8 0.00 0.00
4:03 am 04:03 Cloudy with Mist and Fog 39 4 37 3 93 93 NE 7 11 30.36 1028 5 8 0.00 0.00
4:32 am 04:32 Cloudy with Mist and Fog 39 4 37 3 93 93 NNE 6 9 30.36 1028 6 10 0.00 0.00
4:53 am 04:53 Cloudy with Mist and Fog 40 4.4 38 3.3 93 93 NE 8 13 30.37 1028 5 8 0.00 0.00
5:34 am 05:34 Cloudy with Mist and Fog 39 4 37 3 93 93 NE 6 9 30.36 1028 5 8 0.00 0.00
5:53 am 05:53 Cloudy with Mist and Fog 40 4.4 38 3.3 93 93 NE 7 11 30.38 1029 6 10 0.00 0.00
6:53 am 06:53 Cloudy with Mist and Fog 40 4.4 38 3.3 93 93 NE 3 6 30.39 1029 6 10 0.00 0.00
7:53 am 07:53 Cloudy with Mist and Fog 40 4.4 38 3.3 93 93 NNE 6 9 30.39 1029 6 10 0.00 0.00
8:53 am 08:53 Cloudy with Mist and Fog 41 5 38 3.3 89 89 NE 6 9 30.40 1030 5 8 0.00 0.00
9:53 am 09:53 Cloudy with Mist and Fog 42 5.6 39 3.9 89 89 NE 5 7 30.41 1030 6 10 0.00 0.00
10:53 am 10:53 Cloudy with Mist and Fog 43 6.1 41 5 93 93 ENE 5 7 30.41 1030 6 10 0.00 0.00
11:53 am 11:53 Cloudy 44 6.7 42 5.6 93 93 NE 6 9 30.38 1029 7 11 0.00 0.00
12:48 pm 12:48 Cloudy 46 8 43 6 87 87 NE 5 7 30.36 1028 7 11 0.00 0.00
12:53 pm 12:53 Cloudy 46 7.8 43 6.1 89 89 NNE 5 7 30.35 1028 7 11 0.00 0.00
1:53 pm 13:53 Cloudy 48 8.9 44 6.7 86 86 NNE 3 6 30.35 1028 9 14 0.00 0.00
2:53 pm 14:53 Cloudy 48 8.9 45 7.2 89 89 NE 7 11 30.33 1027 8 13 0.00 0.00
3:53 pm 15:53 Cloudy 48 8.9 46 7.8 93 93 ENE 6 9 30.33 1027 7 11 0.00 0.00
4:53 pm 16:53 Cloudy with Mist and Fog 48 8.9 46 7.8 93 93 E 6 9 30.33 1027 6 10 0.00 0.00
5:53 pm 17:53 Cloudy with Mist and Fog 47 8.3 46 7.8 97 97 NNE 5 7 30.33 1027 5 8 0.00 0.00
6:53 pm 18:53 Cloudy with Mist and Fog 47 8.3 47 8.3 100 100 NNE 3 6 30.34 1027 2 3 0.00 0.00
7:12 pm 19:12 Cloudy with Mist and Fog 46 8 46 8 100 100 NNE 5 7 30.33 1027 2 2 0.00 0.00
7:53 pm 19:53 Cloudy with Mist and Fog 47 8.3 47 8.3 100 100 NE 3 6 30.33 1027 3 4 0.00 0.00
8:53 pm 20:53 Cloudy with Mist and Fog 46 7.8 46 7.8 100 100 S 3 6 30.33 1027 2 3 0.00 0.00
9:53 pm 21:53 Cloudy with Mist and Fog 46 7.8 46 7.8 100 100 Calm 30.31 1027 2 3 0.00 0.00
10:37 pm 22:37 Cloudy with Mist and Fog 47 8.3 47 8.3 100 100 Calm 30.30 1026 1 2 0.00 0.00
10:53 pm 22:53 Cloudy with Mist and Fog 47 8.3 47 8.3 100 100 Calm 30.30 1026 2 2 0.00 0.00
11:13 pm 23:13 Cloudy with Mist and Fog 47 8.3 47 8.3 100 100 Calm 30.30 1026 2 2 0.00 0.00
11:53 pm 23:53 Cloudy with Mist and Fog 47 8.3 47 8.3 100 100 Calm 30.30 1026 1 1 0.00 0.00

Powered by AerisWeather